DIRECTV 12

Last updated on Tue Jul 01 2025 00:02:45 GMT+0000 (Coordinated Universal Time)

1 36131U 09075A 25181.38757264 -.00000104 00000+0 00000+0 0 9998 2 36131 0.0133 126.0378 0000540 335.0759 214.3816 1.00271889 43021
UTC large
Height (km)
Speed (km/s)
/
Latitude / Longitude
Inclination (degrees)
Orbital Period (minutes)
Azimuth
Elevation
Range (km)
Doppler Factor

Next 0 passes for location: London (51.5072 / 0.1276)

Sorry there are no passes over London.